Home   Weather   Melbourne Port   Past weeks
Flag for Australia

Past Weather in Melbourne Port, Victoria, Australia — Yesterday and Last 2 Weeks

Now
57 °F

Partly sunny.


Feels Like: 54 °F
Forecast: 54 / 49 °F
Wind: 16 mph from North

Location: Melbourne Airport

Current Time: Jul 10, 2020 at 1:51:55 pm

Latest Report: Jul 10, 2020 at 1:00 pm


Visibility: N/A

Pressure: 30.15 "Hg

Humidity: 67%

Dew Point: 46 °F

Location of Melbourne PortLocation

Past Weather in Melbourne Port — Graph

°F

Melbourne Port Temperature Yesterday

Maximum temperature yesterday: 59 °F (at 1:00 pm)
Minimum temperature yesterday: 41 °F (at 1:00 am)
Average temperature yesterday: 49 °F

High & Low Weather Summary for the Past Weeks

 TemperatureHumidityPressure
High61 °F (Jul 1, 2:00 pm)100% (Jun 27, 4:30 am)30.48 "Hg (Jun 27, 4:30 am)
Low34 °F (Jun 29, 3:00 am)44% (Jun 29, 2:00 pm)29.65 "Hg (Jul 1, 11:00 pm)
Average48 °F81%30.23 "Hg
* Reported Jun 25 12:00 pm — Jul 10 12:30 pm, Melbourne Port. Weather by CustomWeather, © 2020

Note: Actual official high and low records may vary slightly from our data, if they occured in-between our weather recording intervals... More about our weather records

Melbourne Port Weather History for the Previous 24 Hours

Scroll right to see more
 ConditionsComfort  
Time TempWeatherWind HumidityBarometerVisibility
12:30 pm
Fri, Jul 10
57 °FPartly sunny.20 mph67%30.18 "HgN/A
12:00 pm57 °FPartly sunny.18 mph67%30.18 "HgN/A
11:30 am57 °FPartly sunny.17 mph72%30.18 "HgN/A
11:00 am55 °FSunny.9 mph72%30.21 "Hg10 mi
10:30 am55 °FSunny.8 mph72%30.21 "Hg10 mi
10:00 am52 °FSunny.5 mph82%30.24 "Hg10 mi
9:30 am50 °FSunny.6 mph88%30.24 "Hg10 mi
9:00 am48 °FLight fog.6 mph87%30.24 "HgN/A
8:30 am46 °FSunny.5 mph87%30.24 "Hg10 mi
8:00 am45 °FLight fog.6 mph93%30.24 "HgN/A
7:30 am45 °FPassing clouds.6 mph93%30.24 "HgN/A
7:00 am45 °FClear.8 mph93%30.24 "Hg10 mi
6:30 am45 °FPassing clouds.8 mph93%30.21 "HgN/A
6:00 am46 °FPassing clouds.8 mph87%30.21 "HgN/A
5:30 am45 °FPassing clouds.8 mph87%30.21 "HgN/A
5:00 am45 °FPassing clouds.9 mph93%30.21 "HgN/A
4:30 am46 °FPassing clouds.10 mph87%30.21 "HgN/A
4:00 am48 °FPassing clouds.10 mph87%30.21 "HgN/A
3:30 am48 °FPassing clouds.9 mph87%30.24 "HgN/A
3:00 am48 °FPassing clouds.10 mph87%30.24 "HgN/A
2:30 am48 °FPassing clouds.10 mph87%30.24 "HgN/A
2:00 am48 °FClear.12 mph94%30.24 "Hg10 mi
1:30 am46 °FClear.5 mph93%30.24 "Hg10 mi
1:00 am46 °FClear.6 mph93%30.24 "Hg10 mi
12:30 am46 °FPassing clouds.7 mph93%30.24 "HgN/A
12:00 am45 °FPassing clouds.7 mph100%30.27 "HgN/A
11:30 pm
Thu, Jul 9
46 °FPassing clouds.6 mph93%30.27 "HgN/A
11:00 pm45 °FPassing clouds.6 mph100%30.27 "HgN/A
10:30 pm46 °FPassing clouds.3 mph93%30.27 "HgN/A
10:00 pm48 °FPassing clouds.7 mph94%30.27 "HgN/A
9:30 pm46 °FPassing clouds.8 mph93%30.27 "HgN/A
9:00 pm45 °FPassing clouds.7 mph93%30.27 "HgN/A
8:30 pm45 °FClear.7 mph93%30.27 "Hg10 mi
8:00 pm45 °FClear.6 mph93%30.27 "Hg10 mi
7:30 pm46 °FClear.1 mph93%30.27 "Hg10 mi
7:00 pm46 °FClear.8 mph93%30.27 "Hg10 mi
6:30 pm48 °FClear.8 mph87%30.27 "Hg10 mi
6:00 pm50 °FClear.6 mph82%30.27 "Hg10 mi
5:30 pm52 °FClear.9 mph82%30.27 "Hg10 mi
5:00 pm55 °FSunny.8 mph72%30.27 "Hg10 mi
4:30 pm57 °FScattered clouds.10 mph67%30.27 "HgN/A
4:00 pm57 °FPartly sunny.10 mph67%30.27 "HgN/A
3:30 pm57 °FPartly sunny.12 mph67%30.27 "HgN/A
3:00 pm57 °FScattered clouds.10 mph63%30.27 "HgN/A
2:30 pm59 °FScattered clouds.18 mph59%30.27 "HgN/A
2:00 pm59 °FScattered clouds.21 mph59%30.27 "HgN/A
1:30 pm59 °FScattered clouds.22 mph63%30.27 "HgN/A
1:00 pm59 °FPassing clouds.20 mph63%30.27 "HgN/A
Weather by CustomWeather, © 2020

See weather overview